IZ4UFQ-10 Weather Reports


time (UTC)temp
C
wind
direction
speed
KPH
gust
KPH
rain 1hr
cm
rain 24hr
cm
rain mn
cm
humidity
%
barometer
mb
20260906103750 29 13 0.0 0.0 0.00 0.00 0.00 62 1021.0
20260906103250 29 75 0.0 0.0 0.00 0.00 0.00 62 1021.0
20260906102749 29 29 0.0 0.0 0.00 0.00 0.00 62 1021.1
20260906102249 29 115 0.0 0.0 0.00 0.00 0.00 63 1021.0
20260906101749 30 45 0.0 0.0 0.00 0.00 0.00 62 1021.1
20260906101249 29 22 0.0 0.0 0.00 0.00 0.00 63 1021.0
20260906100748 29 22 0.0 0.0 0.00 0.00 0.00 63 1021.1
20260906100248 29 354 0.0 0.0 0.00 0.00 0.00 63 1021.1
20260906095748 28 33 0.0 0.0 0.00 0.00 0.00 63 1021.1
20260906095247 28 332 0.0 0.0 0.00 0.00 0.00 67 1021.1
20260906094747 28 43 0.0 0.0 0.00 0.00 0.00 68 1021.2
20260906094247 28 36 0.0 0.0 0.00 0.00 0.00 67 1021.2
20260906093747 28 32 0.0 0.0 0.00 0.00 0.00 67 1021.3
20260906093246 28 56 0.0 0.0 0.00 0.00 0.00 68 1021.2
20260906092746 28 80 0.0 0.0 0.00 0.00 0.00 70 1021.2
20260906092246 28 74 0.0 0.0 0.00 0.00 0.00 70 1021.2
20260906091745 28 77 0.0 0.0 0.00 0.00 0.00 71 1021.2
20260906091245 27 9 0.0 0.0 0.00 0.00 0.00 73 1021.3
20260906090745 27 90 0.0 0.0 0.00 0.00 0.00 73 1021.3
20260906090245 27 43 0.0 0.0 0.00 0.00 0.00 75 1021.2
20260906085744 27 39 0.0 0.0 0.00 0.00 0.00 75 1021.2
20260906085244 27 27 0.0 0.0 0.00 0.00 0.00 76 1021.2
20260906084744 27 16 0.0 0.0 0.00 0.00 0.00 75 1021.2
20260906084243 27 21 0.0 0.0 0.00 0.00 0.00 74 1021.2
20260906083743 27 8 0.0 0.0 0.00 0.00 0.00 74 1021.1
20260906083243 27 18 0.0 0.0 0.00 0.00 0.00 73 1021.1
20260906082743 27 22 0.0 0.0 0.00 0.00 0.00 73 1021.1
20260906082242 26 21 0.0 0.0 0.00 0.00 0.00 72 1021.2
20260906081742 26 25 0.0 0.0 0.00 0.00 0.00 72 1021.2
20260906081242 26 25 0.0 0.0 0.00 0.00 0.00 71 1021.2
20260906080741 26 26 0.0 0.0 0.00 0.00 0.00 71 1021.1
20260906080241 26 354 0.0 0.0 0.00 0.00 0.00 72 1021.1
20260906075741 26 354 0.0 0.0 0.00 0.00 0.00 71 1021.0
20260906075241 26 264 0.0 0.0 0.00 0.00 0.00 71 1021.0
20260906074740 26 256 0.0 0.0 0.00 0.00 0.00 72 1020.9
20260906074240 26 256 0.0 0.0 0.00 0.00 0.00 72 1020.9
20260906073740 26 256 0.0 0.0 0.00 0.00 0.00 72 1020.9
20260906073239 26 255 0.0 0.0 0.00 0.00 0.00 72 1020.9
20260906072739 25 251 0.0 0.0 0.00 0.00 0.00 72 1020.9
20260906072239 25 250 0.0 0.0 0.00 0.00 0.00 72 1020.8
20260906071739 25 250 0.0 0.0 0.00 0.00 0.00 72 1020.8
20260906071238 25 249 0.0 0.0 0.00 0.00 0.00 73 1020.8
20260906070738 25 249 0.0 0.0 0.00 0.00 0.00 73 1020.7
20260906070238 25 249 0.0 0.0 0.00 0.00 0.00 74 1020.7
20260906065737 25 207 0.0 0.0 0.00 0.00 0.00 72 1020.7
20260906065237 25 191 0.0 0.0 0.00 0.00 0.00 72 1020.7
20260906064737 25 180 0.0 0.0 0.00 0.00 0.00 71 1020.6
20260906064237 25 180 0.0 0.0 0.00 0.00 0.00 71 1020.6
20260906063736 24 180 0.0 0.0 0.00 0.00 0.00 71 1020.5
20260906063236 24 180 0.0 0.0 0.00 0.00 0.00 71 1020.5
20260906062736 24 180 0.0 0.0 0.00 0.00 0.00 72 1020.4
20260906062235 23 180 0.0 0.0 0.00 0.00 0.00 71 1020.4
20260906061735 23 180 0.0 0.0 0.00 0.00 0.00 71 1020.3
20260906061235 23 180 0.0 0.0 0.00 0.00 0.00 71 1020.3
20260906060735 23 180 0.0 0.0 0.00 0.00 0.00 71 1020.3
20260906060234 23 180 0.0 0.0 0.00 0.00 0.00 72 1020.3
20260906055734 23 180 0.0 0.0 0.00 0.00 0.00 72 1020.1
20260906055234 23 180 0.0 0.0 0.00 0.00 0.00 73 1020.2
20260906054733 23 180 0.0 0.0 0.00 0.00 0.00 73 1020.1
20260906054233 23 180 0.0 0.0 0.00 0.00 0.00 72 1020.1
20260906053733 23 180 0.0 0.0 0.00 0.00 0.00 72 1020.0
20260906053232 23 180 0.0 0.0 0.00 0.00 0.00 72 1020.0
20260906052732 23 180 0.0 0.0 0.00 0.00 0.00 72 1020.0
20260906052232 23 180 0.0 0.0 0.00 0.00 0.00 73 1019.9
20260906051732 23 180 0.0 0.0 0.00 0.00 0.00 73 1019.8
20260906051231 23 180 0.0 0.0 0.00 0.00 0.00 72 1019.9
20260906050731 22 180 0.0 0.0 0.00 0.00 0.00 72 1019.9
20260906050231 22 180 0.0 0.0 0.00 0.00 0.00 73 1019.9
20260906045730 22 180 0.0 0.0 0.00 0.00 0.00 73 1019.8
20260906045230 22 180 0.0 0.0 0.00 0.00 0.00 73 1019.8
20260906044730 22 180 0.0 0.0 0.00 0.00 0.00 73 1019.7
20260906044230 22 180 0.0 0.0 0.00 0.00 0.00 73 1019.7
20260906043729 22 180 0.0 0.0 0.00 0.00 0.00 73 1019.6
20260906043229 22 180 0.0 0.0 0.00 0.00 0.00 74 1019.6
20260906042729 22 180 0.0 0.0 0.00 0.00 0.00 74 1019.5
20260906042228 22 180 0.0 0.0 0.00 0.00 0.00 74 1019.5
20260906041809 22 180 0.0 0.0 0.00 0.00 0.00 73 1019.5
20260906041728 22 180 0.0 0.0 0.00 0.00 0.00 73 1019.5
20260906041228 22 180 0.0 0.0 0.00 0.00 0.00 73 1019.4
20260906040728 22 180 0.0 0.0 0.00 0.00 0.00 73 1019.4
20260906040227 22 180 0.0 0.0 0.00 0.00 0.00 73 1019.3
20260906035727 22 180 0.0 0.0 0.00 0.00 0.00 73 1019.3
20260906035227 22 179 0.0 0.0 0.00 0.00 0.00 73 1019.3
20260906034726 22 180 0.0 0.0 0.00 0.00 0.00 73 1019.3
20260906034226 22 180 0.0 0.0 0.00 0.00 0.00 73 1019.2
20260906033726 22 180 0.0 0.0 0.00 0.00 0.00 73 1019.2
20260906033226 22 180 0.0 0.0 0.00 0.00 0.00 73 1019.0
20260906032725 22 180 0.0 0.0 0.00 0.00 0.00 74 1019.0
20260906032225 22 180 0.0 0.0 0.00 0.00 0.00 74 1019.0
20260906031725 22 180 0.0 0.0 0.00 0.00 0.00 74 1018.9
20260906031224 22 180 0.0 0.0 0.00 0.00 0.00 73 1018.9
20260906030724 22 179 0.0 0.0 0.00 0.00 0.00 73 1018.9
20260906030224 22 180 0.0 0.0 0.00 0.00 0.00 73 1019.0
20260906025724 22 180 0.0 0.0 0.00 0.00 0.00 72 1019.0
20260906025223 22 179 0.0 0.0 0.00 0.00 0.00 72 1018.9
20260906024723 22 180 0.0 0.0 0.00 0.00 0.00 71 1019.0
20260906024223 22 180 0.0 0.0 0.00 0.00 0.00 71 1019.0
20260906023722 22 180 0.0 0.0 0.00 0.00 0.00 71 1018.8
20260906023222 23 179 0.0 0.0 0.00 0.00 0.00 70 1018.8
20260906022722 23 180 0.0 0.0 0.00 0.00 0.00 70 1018.7
20260906022222 23 179 0.0 0.0 0.00 0.00 0.00 70 1018.6
20260906021721 23 180 0.0 0.0 0.00 0.00 0.00 70 1018.5
20260906021221 23 179 0.0 0.0 0.00 0.00 0.00 70 1018.5
20260906020721 23 179 0.0 0.0 0.00 0.00 0.00 70 1018.4
20260906020220 23 179 0.0 0.0 0.00 0.00 0.00 69 1018.4
20260906015720 23 179 0.0 0.0 0.00 0.00 0.00 69 1018.2
20260906015220 23 179 0.0 0.0 0.00 0.00 0.00 69 1018.2
20260906014719 23 179 0.0 0.0 0.00 0.00 0.00 69 1018.2
20260906014219 23 179 0.0 0.0 0.00 0.00 0.00 69 1018.2
20260906013719 23 179 0.0 0.0 0.00 0.00 0.00 69 1018.2
20260906013219 23 179 0.0 0.0 0.00 0.00 0.00 69 1018.2
20260906012718 23 179 0.0 0.0 0.00 0.00 0.00 69 1018.2
20260906012218 23 179 0.0 0.0 0.00 0.00 0.00 69 1018.1
20260906011718 23 179 0.0 0.0 0.00 0.00 0.00 68 1018.1
20260906011218 23 179 0.0 0.0 0.00 0.00 0.00 68 1018.1
20260906010717 23 179 0.0 0.0 0.00 0.00 0.00 68 1018.1
20260906010217 23 179 0.0 0.0 0.00 0.00 0.00 68 1018.1
20260906005717 23 179 0.0 0.0 0.00 0.00 0.00 68 1018.0
20260906005216 23 179 0.0 0.0 0.00 0.00 0.00 69 1018.0
20260906004716 23 179 0.0 0.0 0.00 0.00 0.00 68 1018.0
20260906004216 23 179 0.0 0.0 0.00 0.00 0.00 68 1018.0
20260906003715 23 179 0.0 0.0 0.00 0.00 0.00 68 1018.0
20260906003215 23 179 0.0 0.0 0.00 0.00 0.00 67 1018.0
20260906002715 23 179 0.0 0.0 0.00 0.00 0.00 67 1018.0
20260906002215 23 179 0.0 0.0 0.00 0.00 0.00 66 1018.0
20260906001714 23 179 0.0 0.0 0.00 0.00 0.00 66 1018.0
20260906001214 23 179 0.0 0.0 0.00 0.00 0.00 66 1018.0
20260906000714 24 179 0.0 0.0 0.00 0.00 0.00 66 1018.0
20260906000213 24 179 0.0 0.0 0.00 0.00 0.00 66 1018.0
20260905235713 24 179 0.0 0.0 0.00 0.00 0.00 65 1018.0
20260905235213 24 179 0.0 0.0 0.00 0.00 0.00 65 1018.0
20260905234713 24 179 0.0 0.0 0.00 0.00 0.00 65 1018.0
20260905234212 24 179 0.0 0.0 0.00 0.00 0.00 64 1017.8
20260905233712 24 179 0.0 0.0 0.00 0.00 0.00 64 1017.8
20260905233212 24 179 0.0 0.0 0.00 0.00 0.00 64 1017.8
20260905232711 24 179 0.0 0.0 0.00 0.00 0.00 63 1017.8
20260905232211 24 179 0.0 0.0 0.00 0.00 0.00 62 1017.7
20260905231711 24 179 0.0 0.0 0.00 0.00 0.00 62 1017.6
20260905231211 25 179 0.0 0.0 0.00 0.00 0.00 61 1017.7
20260905230710 25 179 0.0 0.0 0.00 0.00 0.00 60 1017.6
20260905230210 25 179 0.0 0.0 0.00 0.00 0.00 60 1017.6
20260905225710 25 179 0.0 0.0 0.00 0.00 0.00 59 1017.6
20260905225209 25 179 0.0 0.0 0.00 0.00 0.00 58 1017.5
20260905224709 25 179 0.0 0.0 0.00 0.00 0.00 58 1017.5
20260905224209 25 179 0.0 0.0 0.00 0.00 0.00 58 1017.5
20260905223709 25 179 0.0 0.0 0.00 0.00 0.00 57 1017.5
20260905223208 26 179 0.0 0.0 0.00 0.00 0.00 56 1017.4
20260905222708 26 179 0.0 0.0 0.00 0.00 0.00 56 1017.3
20260905222208 26 179 0.0 0.0 0.00 0.00 0.00 55 1017.4
20260905221707 26 179 0.0 0.0 0.00 0.00 0.00 54 1017.3
20260905221207 26 179 0.0 0.0 0.00 0.00 0.00 54 1017.3
20260905220707 26 179 0.0 0.0 0.00 0.00 0.00 53 1017.1
20260905220206 27 179 0.0 0.0 0.00 0.00 0.00 52 1017.2
20260905215706 27 179 0.0 0.0 0.00 0.00 0.00 52 1017.1
20260905215206 27 179 0.0 0.0 0.00 0.00 0.00 51 1017.0
20260905214706 27 180 0.0 0.0 0.00 0.00 0.00 51 1017.0
20260905214205 27 181 0.0 0.0 0.00 0.00 0.00 51 1017.0
20260905213705 27 195 0.0 0.0 0.00 0.00 0.00 51 1016.9
20260905213205 27 195 0.0 0.0 0.00 0.00 0.00 50 1016.8
20260905212704 27 195 0.0 0.0 0.00 0.00 0.00 50 1016.7
20260905212204 27 195 0.0 0.0 0.00 0.00 0.00 50 1016.7
20260905211704 27 197 0.0 0.0 0.00 0.00 0.00 51 1016.7
20260905211204 27 204 0.0 0.0 0.00 0.00 0.00 50 1016.7
20260905210703 27 204 0.0 0.0 0.00 0.00 0.00 50 1016.6
20260905210203 28 204 0.0 0.0 0.00 0.00 0.00 50 1016.5
20260905205703 28 204 0.0 0.0 0.00 0.00 0.00 50 1016.5
20260905205202 27 191 0.0 0.0 0.00 0.00 0.00 49 1016.5
20260905204734 28 191 0.0 0.0 0.00 0.00 0.00 49 1016.6
20260905204702 28 191 0.0 0.0 0.00 0.00 0.00 49 1016.6
20260905204202 28 190 0.0 0.0 0.00 0.00 0.00 49 1016.5
20260905203702 28 191 0.0 0.0 0.00 0.00 0.00 49 1016.5
20260905203201 28 192 0.0 0.0 0.00 0.00 0.00 49 1016.4
20260905202701 28 192 0.0 0.0 0.00 0.00 0.00 49 1016.4
20260905202201 28 192 0.0 0.0 0.00 0.00 0.00 49 1016.4
20260905201700 28 184 0.0 0.0 0.00 0.00 0.00 50 1016.4
20260905201200 28 184 0.0 0.0 0.00 0.00 0.00 50 1016.4
20260905200700 28 184 0.0 0.0 0.00 0.00 0.00 50 1016.4
20260905200200 28 175 0.0 0.0 0.00 0.00 0.00 51 1016.3
20260905195659 28 258 0.0 0.0 0.00 0.00 0.00 52 1016.3
20260905195159 28 265 0.0 0.0 0.00 0.00 0.00 52 1016.3
20260905194659 28 265 0.0 0.0 0.00 0.00 0.00 52 1016.3
20260905194158 28 265 0.0 0.0 0.00 0.00 0.00 52 1016.2
20260905193658 28 265 0.0 0.0 0.00 0.00 0.00 52 1016.3
20260905193158 28 265 0.0 0.0 0.00 0.00 0.00 52 1016.2
20260905192658 28 265 0.0 0.0 0.00 0.00 0.00 49 1016.1
20260905192157 28 265 0.0 0.0 0.00 0.00 0.00 49 1016.1
20260905191657 29 266 0.0 0.0 0.00 0.00 0.00 51 1016.0
20260905191157 29 266 0.0 0.0 0.00 0.00 0.00 50 1016.0
20260905190656 29 267 0.0 0.0 0.00 0.00 0.00 50 1015.9
20260905190156 30 267 0.0 0.0 0.00 0.00 0.00 50 1015.9
20260905185656 30 267 0.0 0.0 0.00 0.00 0.00 50 1015.8
20260905185155 30 266 0.0 0.0 0.00 0.00 0.00 49 1015.8
20260905184655 30 267 0.0 0.0 0.00 0.00 0.00 48 1015.7
20260905184155 30 267 0.0 0.0 0.00 0.00 0.00 50 1015.7
20260905183655 30 266 0.0 0.0 0.00 0.00 0.00 49 1015.6
20260905183238 30 267 0.0 0.0 0.00 0.00 0.00 49 1015.5
20260905183154 30 267 0.0 0.0 0.00 0.00 0.00 49 1015.5
20260905182654 30 267 0.0 0.0 0.00 0.00 0.00 49 1015.5
20260905182154 31 267 0.0 0.0 0.00 0.00 0.00 49 1015.4
20260905181653 31 267 0.0 0.0 0.00 0.00 0.00 48 1015.3
20260905181153 31 267 0.0 0.0 0.00 0.00 0.00 48 1015.2
20260905180653 31 272 0.0 0.0 0.00 0.00 0.00 48 1015.2
20260905180153 31 272 0.0 0.0 0.00 0.00 0.00 48 1015.1
20260905175652 31 275 0.0 0.0 0.00 0.00 0.00 48 1015.2
20260905175152 31 276 0.0 0.0 0.00 0.00 0.00 47 1015.2
20260905174652 32 276 0.0 0.0 0.00 0.00 0.00 47 1015.1
20260905174152 32 275 0.0 0.0 0.00 0.00 0.00 46 1015.1
20260905173651 32 276 0.0 0.0 0.00 0.00 0.00 45 1015.0
20260905173151 32 278 0.0 0.0 0.00 0.00 0.00 45 1014.9
20260905172651 32 278 0.0 0.0 0.00 0.00 0.00 44 1014.9
20260905172150 33 297 0.0 0.0 0.00 0.00 0.00 43 1014.9
20260905171650 33 305 0.0 0.0 0.00 0.00 0.00 42 1014.9
20260905171150 33 314 0.0 0.0 0.00 0.00 0.00 41 1014.8
20260905170649 34 328 0.0 0.0 0.00 0.00 0.00 39 1014.8
20260905170149 34 330 0.0 0.0 0.00 0.00 0.00 38 1014.7
20260905165649 34 331 0.0 0.0 0.00 0.00 0.00 34 1014.7
20260905165149 34 334 0.0 0.0 0.00 0.00 0.00 33 1014.6
20260905164648 34 334 0.0 0.0 0.00 0.00 0.00 33 1014.6
20260905164148 34 333 0.0 0.0 0.00 0.00 0.00 33 1014.5
20260905163648 34 333 0.0 0.0 0.00 0.00 0.00 32 1014.5
20260905163147 35 325 0.0 0.0 0.00 0.00 0.00 32 1014.5
20260905162647 35 331 0.0 0.0 0.00 0.00 0.00 32 1014.4
20260905162147 35 322 0.0 0.0 0.00 0.00 0.00 32 1014.4
20260905161647 35 326 0.0 0.0 0.00 0.00 0.00 32 1014.4
20260905161146 35 324 0.0 0.0 0.00 0.00 0.00 32 1014.4
20260905160646 35 334 0.0 0.0 0.00 0.00 0.00 32 1014.3
20260905160146 35 336 0.0 0.0 0.00 0.00 0.00 31 1014.4
20260905155645 35 317 0.0 0.0 0.00 0.00 0.00 32 1014.3
20260905155145 35 316 0.0 0.0 0.00 0.00 0.00 32 1014.3
20260905154645 35 354 0.0 0.0 0.00 0.00 0.00 32 1014.3
20260905154145 35 359 0.0 0.0 0.00 0.00 0.00 32 1014.3
20260905153644 35 4 0.0 0.0 0.00 0.00 0.00 31 1014.3
20260905153144 36 354 0.0 0.0 0.00 0.00 0.00 31 1014.2
20260905152644 36 283 0.0 0.0 0.00 0.00 0.00 31 1014.2
20260905152143 36 266 0.0 0.0 0.00 0.00 0.00 30 1014.2
20260905151643 35 251 0.0 0.0 0.00 0.00 0.00 31 1014.2
20260905151143 35 251 0.0 0.0 0.00 0.00 0.00 31 1014.3
20260905150643 35 257 0.0 0.0 0.00 0.00 0.00 31 1014.2
20260905150142 35 310 0.0 0.0 0.00 0.00 0.00 31 1014.3
20260905145642 35 341 0.0 0.0 0.00 0.00 0.00 31 1014.3
20260905145142 35 335 0.0 0.0 0.00 0.00 0.00 32 1014.3
20260905144641 35 16 0.0 0.0 0.00 0.00 0.00 31 1014.3
20260905144141 35 4 0.0 0.0 0.00 0.00 0.00 31 1014.4
20260905143641 35 299 0.0 0.0 0.00 0.00 0.00 31 1014.4
20260905143141 35 38 0.0 0.0 0.00 0.00 0.00 31 1014.5
20260905142640 35 316 0.0 0.0 0.00 0.00 0.00 31 1014.5
20260905142140 35 331 0.0 0.0 0.00 0.00 0.00 31 1014.5
20260905141640 35 44 0.0 0.0 0.00 0.00 0.00 31 1014.5
20260905141139 35 354 0.0 0.0 0.00 0.00 0.00 31 1014.6
20260905140639 35 146 0.0 0.0 0.00 0.00 0.00 30 1014.6
20260905140139 35 160 0.0 0.0 0.00 0.00 0.00 30 1014.6
20260905135639 35 162 0.0 0.0 0.00 0.00 0.00 30 1014.6
20260905135138 35 145 0.0 0.0 0.00 0.00 0.00 31 1014.7
20260905134638 35 145 0.0 0.0 0.00 0.00 0.00 31 1014.8
20260905134138 34 145 0.0 0.0 0.00 0.00 0.00 31 1014.8
20260905133637 34 147 0.0 0.0 0.00 0.00 0.00 31 1014.9
20260905133137 34 28 0.0 0.0 0.00 0.00 0.00 31 1015.0
20260905132637 33 28 0.0 0.0 0.00 0.00 0.00 32 1015.1
20260905132136 33 28 0.0 0.0 0.00 0.00 0.00 31 1015.1
20260905131636 34 343 0.0 0.0 0.00 0.00 0.00 31 1015.1
20260905131136 33 349 0.0 0.0 0.00 0.00 0.00 31 1015.2
20260905130636 34 346 0.0 0.0 0.00 0.00 0.00 31 1015.2
20260905130135 34 309 0.0 0.0 0.00 0.00 0.00 31 1015.4
20260905125635 33 14 0.0 0.0 0.00 0.00 0.00 31 1015.3
20260905125135 33 14 0.0 0.0 0.00 0.00 0.00 31 1015.4
20260905124634 33 18 0.0 0.0 0.00 0.00 0.00 31 1015.5
20260905124134 33 359 0.0 0.0 0.00 0.00 0.00 31 1015.5
20260905123634 33 46 0.0 0.0 0.00 0.00 0.00 32 1015.5
20260905123134 33 4 0.0 0.0 0.00 0.00 0.00 32 1015.6
20260905122633 33 10 0.0 0.0 0.00 0.00 0.00 32 1015.6
20260905122133 33 26 0.0 0.0 0.00 0.00 0.00 32 1015.6
20260905121633 33 16 0.0 0.0 0.00 0.00 0.00 32 1015.8
20260905121132 33 8 0.0 0.0 0.00 0.00 0.00 31 1015.8
20260905120632 33 14 0.0 0.0 0.00 0.00 0.00 31 1015.9
20260905120132 33 306 0.0 0.0 0.00 0.00 0.00 31 1015.9
20260905115632 32 25 0.0 0.0 0.00 0.00 0.00 32 1015.9
20260905115131 32 359 0.0 0.0 0.00 0.00 0.00 32 1016.0
20260905114631 33 4 0.0 0.0 0.00 0.00 0.00 31 1015.9
20260905114131 33 9 0.0 0.0 0.00 0.00 0.00 32 1015.9
20260905113630 33 340 0.0 0.0 0.00 0.00 0.00 31 1015.9
20260905113130 33 310 0.0 0.0 0.00 0.00 0.00 30 1015.8
20260905112630 33 359 0.0 0.0 0.00 0.00 0.00 30 1015.8
20260905112130 33 12 0.0 0.0 0.00 0.00 0.00 29 1015.8
20260905111629 33 285 0.0 0.0 0.00 0.00 0.00 30 1015.9
20260905111129 33 359 0.0 0.0 0.00 0.00 0.00 30 1016.0
20260905110629 32 300 0.0 0.0 0.00 0.00 0.00 30 1016.0
20260905110128 32 334 0.0 0.0 0.00 0.00 0.00 31 1016.1
20260905105628 32 359 0.0 0.0 0.00 0.00 0.00 33 1016.0
20260905105128 32 12 0.0 0.0 0.00 0.00 0.00 33 1016.0
20260905104628 32 330 0.0 0.0 0.00 0.00 0.00 33 1016.1
20260905104127 32 330 0.0 0.0 0.00 0.00 0.00 33 1016.2